When you browse on this site, cookies collect data to enhance your experience and personalize the content and advertising you see.
Visit our Privacy Policy to learn more. By continuing to use the site, you agree to this use of cookies and data.
  • In Denmark
  • List of Countries
  • For 7 days
  • Water Temperature
  • Satellite Maps
  • Weather Map
  • Weather Widgets
  • user-avatar
    Login

    Hourly Weather Szczepkow

    Today, 24 July, Wednesday

    Time Temperature Precipitation Wind Pressure Humidity
    00:00 +16°C° 0 mm 0 mps 714 mmHg 91%
    01:00 +16°C° 0 mm 0 mps 714 mmHg 92%
    02:00 +15°C° 0 mm 0 mps 713 mmHg 92%
    03:00 +15°C° 0 mm 0 mps 713 mmHg 92%
    04:00 +15°C° 0 mm 0 mps 713 mmHg 93%
    05:00 +17°C° 0 mm 0 mps 713 mmHg 89%
    06:00 +18°C° 0 mm 0 mps 713 mmHg 85%
    07:00 +22°C° 0 mm 1 mps 713 mmHg 81%
    08:00 +23°C° 0 mm 1 mps 714 mmHg 73%
    09:00 +24°C° 0 mm 1 mps 714 mmHg 65%
    10:00 +26°C° 0 mm 2 mps 714 mmHg 57%
    11:00 +26°C° 0 mm 2 mps 714 mmHg 53%
    12:00 +27°C° 0 mm 2 mps 714 mmHg 50%
    13:00 +27°C° 0 mm 2 mps 714 mmHg 46%
    14:00 +27°C° 0 mm 2 mps 714 mmHg 47%
    15:00 +27°C° 0 mm 2 mps 713 mmHg 48%
    16:00 +27°C° 0 mm 2 mps 713 mmHg 49%
    17:00 +25°C° 0 mm 2 mps 713 mmHg 55%
    18:00 +24°C° 0 mm 1 mps 713 mmHg 61%
    19:00 +22°C° 0 mm 1 mps 712 mmHg 68%
    20:00 +21°C° 0 mm 1 mps 713 mmHg 70%
    21:00 +20°C° 0 mm 1 mps 713 mmHg 72%
    22:00 +19°C° 0 mm 1 mps 713 mmHg 74%
    23:00 +18°C° 0 mm 1 mps 713 mmHg 77%

    Tomorrow, 25 July, Thursday

    Time Temperature Precipitation Wind Pressure Humidity
    00:00 +16°C° 0 mm 0 mps 713 mmHg 79%
    01:00 +15°C° 0 mm 0 mps 713 mmHg 82%
    02:00 +15°C° 0 mm 0 mps 713 mmHg 83%
    03:00 +15°C° 0 mm 0 mps 713 mmHg 84%
    04:00 +15°C° 0 mm 0 mps 713 mmHg 85%
    05:00 +17°C° 0 mm 0 mps 713 mmHg 80%
    06:00 +19°C° 0 mm 0 mps 713 mmHg 75%
    07:00 +20°C° 0 mm 0 mps 714 mmHg 70%
    08:00 +22°C° 0 mm 0 mps 714 mmHg 64%
    09:00 +24°C° 0 mm 0 mps 714 mmHg 58%
    10:00 +27°C° 0 mm 1 mps 714 mmHg 51%
    11:00 +28°C° 0 mm 1 mps 714 mmHg 49%
    12:00 +28°C° 0 mm 1 mps 714 mmHg 46%
    13:00 +29°C° 0 mm 2 mps 714 mmHg 44%
    14:00 +29°C° 0 mm 2 mps 713 mmHg 45%
    15:00 +28°C° 0 mm 2 mps 713 mmHg 47%
    16:00 +28°C° 0 mm 3 mps 713 mmHg 49%
    17:00 +26°C° 0 mm 2 mps 712 mmHg 55%
    18:00 +25°C° 0 mm 2 mps 712 mmHg 61%
    19:00 +23°C° 0 mm 1 mps 712 mmHg 66%
    20:00 +22°C° 0 mm 1 mps 712 mmHg 69%
    21:00 +21°C° 0 mm 1 mps 712 mmHg 72%
    22:00 +19°C° 0 mm 1 mps 712 mmHg 74%
    23:00 +19°C° 0 mm 1 mps 712 mmHg 77%

    Day after tomorrow, 26 July, Friday

    Time Temperature Precipitation Wind Pressure Humidity
    00:00 +18°C° 0 mm 1 mps 712 mmHg 80%
    01:00 +18°C° 0 mm 1 mps 711 mmHg 83%
    02:00 +18°C° 0 mm 1 mps 711 mmHg 86%
    03:00 +16°C° 0 mm 1 mps 711 mmHg 89%
    04:00 +16°C° 0 mm 1 mps 711 mmHg 91%
    05:00 +18°C° 0 mm 1 mps 711 mmHg 87%
    06:00 +20°C° 0 mm 1 mps 711 mmHg 83%
    07:00 +20°C° 0 mm 2 mps 711 mmHg 78%
    08:00 +21°C° 0 mm 2 mps 711 mmHg 73%
    09:00 +22°C° 0 mm 3 mps 711 mmHg 67%
    10:00 +23°C° 0 mm 4 mps 711 mmHg 61%
    11:00 +23°C° 0 mm 4 mps 711 mmHg 59%
    12:00 +23°C° 0 mm 4 mps 711 mmHg 56%
    13:00 +25°C° 0 mm 4 mps 710 mmHg 54%
    14:00 +25°C° 0 mm 4 mps 710 mmHg 54%
    15:00 +25°C° 0 mm 4 mps 710 mmHg 54%
    16:00 +25°C° 0 mm 4 mps 709 mmHg 54%
    17:00 +22°C° 0 mm 4 mps 709 mmHg 60%
    18:00 +21°C° 0 mm 4 mps 709 mmHg 66%
    19:00 +19°C° 0 mm 3 mps 709 mmHg 72%
    20:00 +18°C° 0 mm 3 mps 709 mmHg 76%
    21:00 +17°C° 0 mm 2 mps 708 mmHg 79%
    22:00 +16°C° 0 mm 2 mps 708 mmHg 83%
    23:00 +15°C° 0 mm 2 mps 708 mmHg 85%

    27 July, Saturday

    Time Temperature Precipitation Wind Pressure Humidity
    00:00 +15°C° 0 mm 2 mps 708 mmHg 87%
    01:00 +14°C° 0 mm 2 mps 707 mmHg 89%
    02:00 +14°C° 0 mm 1 mps 707 mmHg 91%
    03:00 +14°C° 0 mm 1 mps 707 mmHg 92%
    04:00 +13°C° 0 mm 1 mps 707 mmHg 94%
    05:00 +15°C° 0 mm 2 mps 707 mmHg 89%
    06:00 +16°C° 0 mm 2 mps 707 mmHg 85%
    07:00 +17°C° 0 mm 3 mps 707 mmHg 81%
    08:00 +19°C° 0 mm 3 mps 707 mmHg 75%
    09:00 +20°C° 0 mm 4 mps 707 mmHg 70%
    10:00 +21°C° 0 mm 4 mps 708 mmHg 64%
    11:00 +22°C° 0 mm 4 mps 707 mmHg 62%
    12:00 +23°C° 0 mm 5 mps 707 mmHg 59%
    13:00 +25°C° 0 mm 5 mps 707 mmHg 56%
    14:00 +25°C° 0 mm 5 mps 707 mmHg 56%
    15:00 +25°C° 0 mm 5 mps 706 mmHg 56%
    16:00 +25°C° 0 mm 5 mps 706 mmHg 56%
    17:00 +22°C° 0 mm 4 mps 706 mmHg 62%
    18:00 +21°C° 0 mm 4 mps 706 mmHg 67%
    19:00 +20°C° 0 mm 4 mps 706 mmHg 73%
    20:00 +19°C° 0 mm 3 mps 706 mmHg 76%
    21:00 +18°C° 0 mm 3 mps 706 mmHg 79%
    22:00 +17°C° 0 mm 3 mps 706 mmHg 82%
    23:00 +16°C° 0 mm 3 mps 706 mmHg 85%

    28 July, Sunday

    Time Temperature Precipitation Wind Pressure Humidity
    00:00 +16°C° 0 mm 2 mps 705 mmHg 87%
    01:00 +15°C° 0 mm 2 mps 705 mmHg 90%
    02:00 +15°C° 0 mm 2 mps 705 mmHg 91%
    03:00 +15°C° 0 mm 2 mps 705 mmHg 93%
    04:00 +14°C° 0 mm 2 mps 705 mmHg 94%
    05:00 +16°C° 0 mm 2 mps 705 mmHg 91%
    06:00 +17°C° 0 mm 3 mps 705 mmHg 87%
    07:00 +18°C° 0 mm 3 mps 706 mmHg 83%
    08:00 +20°C° 0 mm 4 mps 706 mmHg 79%
    09:00 +21°C° 0 mm 4 mps 706 mmHg 75%
    10:00 +22°C° 0 mm 5 mps 706 mmHg 71%
    11:00 +23°C° 0.1 mm 6 mps 706 mmHg 67%
    12:00 +23°C° 0.1 mm 6 mps 706 mmHg 64%
    13:00 +24°C° 0.1 mm 7 mps 706 mmHg 60%
    14:00 +24°C° 0 mm 7 mps 706 mmHg 60%
    15:00 +24°C° 0 mm 7 mps 706 mmHg 61%
    16:00 +23°C° 0 mm 7 mps 706 mmHg 61%
    17:00 +22°C° 0 mm 5 mps 706 mmHg 66%
    18:00 +21°C° 0 mm 4 mps 706 mmHg 71%
    19:00 +20°C° 0 mm 3 mps 706 mmHg 76%
    20:00 +19°C° 0 mm 3 mps 706 mmHg 79%
    21:00 +18°C° 0 mm 2 mps 707 mmHg 82%
    22:00 +17°C° 0 mm 2 mps 707 mmHg 84%
    23:00 +17°C° 0 mm 2 mps 707 mmHg 86%

    29 July, Monday

    Time Temperature Precipitation Wind Pressure Humidity
    00:00 +16°C° 0 mm 1 mps 707 mmHg 87%
    01:00 +16°C° 0 mm 1 mps 707 mmHg 88%
    02:00 +16°C° 0 mm 1 mps 708 mmHg 90%
    03:00 +16°C° 0 mm 1 mps 708 mmHg 91%
    04:00 +15°C° 0 mm 1 mps 708 mmHg 92%
    05:00 +17°C° 0 mm 2 mps 708 mmHg 89%
    06:00 +18°C° 0 mm 2 mps 709 mmHg 85%
    07:00 +20°C° 0 mm 2 mps 709 mmHg 81%
    08:00 +21°C° 0 mm 3 mps 709 mmHg 77%
    09:00 +24°C° 0 mm 3 mps 710 mmHg 72%
    10:00 +25°C° 0 mm 4 mps 710 mmHg 68%
    11:00 +26°C° 0.2 mm 4 mps 710 mmHg 66%
    12:00 +26°C° 0.2 mm 4 mps 710 mmHg 64%
    13:00 +27°C° 0.2 mm 5 mps 710 mmHg 61%
    14:00 +27°C° 0.2 mm 5 mps 710 mmHg 60%
    15:00 +27°C° 0.2 mm 5 mps 710 mmHg 59%
    16:00 +27°C° 0.2 mm 5 mps 710 mmHg 58%
    17:00 +26°C° 0 mm 5 mps 710 mmHg 64%
    18:00 +23°C° 0 mm 4 mps 710 mmHg 70%
    19:00 +22°C° 0 mm 4 mps 710 mmHg 76%
    20:00 +20°C° 0 mm 3 mps 710 mmHg 77%
    21:00 +19°C° 0 mm 2 mps 710 mmHg 77%
    22:00 +17°C° 0 mm 2 mps 710 mmHg 78%
    23:00 +16°C° 0 mm 2 mps 711 mmHg 78%
    Show more